Terminal Aerodrome Forecast
Issued by NWS

Home | Current Version | Previous Version | Text Only | Print | Product List | Glossary On
Versions: 1 2 3 4 5 6 7 8 9 10 11 12 13 14 15 16 17 18
000
FTUS45 KRIW 291127
TAFRKS
TAF
KRKS 291127Z 2912/3012 06011KT P6SM VCSH SCT008 OVC012
      TEMPO 2912/2914 3SM -SN OVC008
     FM291900 05012KT P6SM VCSH SCT016 BKN035
     FM292300 07016KT P6SM VCSH SCT025 BKN040
     FM300300 08014KT P6SM SCT030 BKN050=

USA.gov is the U.S. government's official web portal to all federal, state and local government web resources and services.